Location: ?????????
(54.7630°N, 39.4991°E)
Time: 11:05:45
(UTC+00:00)

Cosmos 1943 Rocket - Pass Details

Date: 14 April 2026
Orbit: 809 x 844 km, 71.0° (Epoch: 9 May)

Event Time Altitude Azimuth Distance (km) Brightness Sun altitude
Rises 17:20:46 0° 326° (NW) 3,414 6.7 -8.3°
Reaches altitude 10° 17:23:14 10° 326° (NW) 2,477 5.8 -8.6°
Maximum altitude 17:28:56 85° 240° (WSW) 855 2.3 -9.3°
Drops below altitude 10° 17:34:35 10° 152° (SSE) 2,456 4.1 -10.0°
Enters shadow 17:34:51 - 152° (SSE) 2,556 4.2 -10.1°
